Location: Shepherdstown, WV
(39.4326°N, 77.8042°W)
Time: 19:43:33
(UTC-04:00)

Vanguard 3 - Pass Details

Date: 26 July 2021
Orbit: 510 x 3260 km, 33.3° (Epoch: 18 September)

Event Time Altitude Azimuth Distance (km) Brightness Sun altitude
Rises 00:37:12 0° 275° (W) 7,194 12.2 -30.4°
Reaches altitude 10° 00:42:07 10° 273° (W) 6,201 11.7 -30.6°
Maximum altitude 01:01:17 62° 199° (SSW) 3,025 9.6 -31.1°
Enters shadow 01:07:50 39° 139° (SE) 3,256 9.7 -31.1°
